Weather History for KS25 - January, 2012

Change the Weather History Date:

Monday, January 2, 2012

  Actual Average (KISN) Record (KISN)
Temperature  
Mean Temperature 16 °F 11 °F  
Max Temperature 32 °F 21 °F 48 °F (1963)
Min Temperature 1 °F 0 °F -32 °F (1928)
Degree Days  
Heating Degree Days 48 54  
Month to date heating degree days 108  
Since 1 July heating degree days 3855  
Cooling Degree Days 0 0  
Month to date cooling degree days 0  
Year to date cooling degree days 0  
Moisture  
Dew Point 5 °F    
Average Humidity 65    
Maximum Humidity 92    
Minimum Humidity 34    
Precipitation  
Precipitation 0.00 in 0.02 in 0.25 in (1899)
Month to date precipitation 0.04  
Year to date precipitation 0.04  
Sea Level Pressure  
Sea Level Pressure 30.36 in    
Wind  
Wind Speed 6 mph (SSE)    
Max Wind Speed 20 mph    
Max Gust Speed 26 mph    
Visibility 10 miles    
Events      
T = Trace of Precipitation, MM = Missing Value Source: NWS Daily Summary

Daily Weather History Graph

Daily Weather History Graph

Search for Another Location

Airport or City:

Trip Planner

Search our weather history database for the weather conditions in past years. The results will help you decide how hot, cold, wet, or windy it might be!

Date:

Astronomy

Jan. 02, 2012 Rise Set
Actual Time 8:42 AM CST 5:12 PM CST
Civil Twilight 8:06 AM CST 5:47 PM CST
Nautical Twilight 7:26 AM CST 6:27 PM CST
Astronomical Twilight 6:49 AM CST 7:04 PM CST
Moon 12:40 PM CST 2:24 AM CST
Length of Visible Light 9h 41m
Length of Day
8h 29m
Waxing Gibbous, 64% of the Moon is Illuminated
Jan 2
Waxing Gibbous
Jan 9
Full
Jan 16
Last Quarter
Jan 23
New
Jan 30
First Quarter

Hourly Weather History & Observations

Time (CST) Temp. Windchill Dew Point Humidity Pressure Visibility Wind Dir Wind Speed Gust Speed Precip Events Conditions
12:15 AM 6.8 °F -2.0 °F 1.4 °F 79% 30.58 in 10.0 mi WSW 4.6 mph - N/A   Clear
12:35 AM 6.8 °F -3.5 °F 1.4 °F 79% 30.58 in 10.0 mi WSW 5.8 mph - N/A   Clear
12:55 AM 6.8 °F - 1.4 °F 79% 30.58 in 10.0 mi Calm Calm - N/A   Clear
1:15 AM 6.8 °F -0.1 °F -0.4 °F 72% 30.58 in 10.0 mi SW 3.5 mph - N/A   Clear
1:35 AM 6.8 °F -0.1 °F -0.4 °F 72% 30.58 in 10.0 mi SW 3.5 mph - N/A   Clear
1:55 AM 6.8 °F -2.0 °F 1.4 °F 79% 30.58 in 10.0 mi SW 4.6 mph - N/A   Clear
2:15 AM 5.0 °F -2.1 °F -0.4 °F 78% 30.57 in 10.0 mi South 3.5 mph - N/A   Clear
2:35 AM 6.8 °F -2.0 °F -0.4 °F 72% 30.56 in 10.0 mi SSW 4.6 mph - N/A   Clear
2:55 AM 5.0 °F -5.6 °F -0.4 °F 78% 30.55 in 10.0 mi SW 5.8 mph - N/A   Clear
3:15 AM 5.0 °F -6.9 °F -0.4 °F 78% 30.56 in 10.0 mi SW 6.9 mph - N/A   Clear
3:35 AM 5.0 °F -4.1 °F -0.4 °F 78% 30.55 in 10.0 mi SW 4.6 mph - N/A   Clear
3:55 AM 5.0 °F -2.1 °F -0.4 °F 78% 30.54 in 10.0 mi SW 3.5 mph - N/A   Clear
4:15 AM 6.8 °F -2.0 °F -0.4 °F 72% 30.54 in 10.0 mi SW 4.6 mph - N/A   Clear
4:35 AM 5.0 °F - -0.4 °F 78% 30.54 in 10.0 mi Calm Calm - N/A   Clear
4:55 AM 3.2 °F - -0.4 °F 85% 30.54 in 10.0 mi Calm Calm - N/A   Clear
5:15 AM 1.4 °F - -2.2 °F 85% 30.53 in 10.0 mi Calm Calm - N/A   Clear
5:35 AM 5.0 °F - -0.4 °F 78% 30.52 in 10.0 mi Calm Calm - N/A   Clear
5:55 AM 5.0 °F - -0.4 °F 78% 30.51 in 10.0 mi Calm Calm - N/A   Clear
6:15 AM 1.4 °F - -2.2 °F 85% 30.51 in 10.0 mi Calm Calm - N/A   Clear
6:35 AM 1.4 °F - -0.4 °F 92% 30.51 in 10.0 mi Calm Calm - N/A   Clear
6:55 AM 1.4 °F - -2.2 °F 85% 30.50 in 10.0 mi Calm Calm - N/A   Clear
7:15 AM 3.2 °F - -0.4 °F 85% 30.50 in 10.0 mi Calm Calm - N/A   Clear
7:35 AM 1.4 °F - -2.2 °F 85% 30.49 in 10.0 mi Calm Calm - N/A   Clear
7:55 AM 1.4 °F -6.2 °F -0.4 °F 92% 30.48 in 9.0 mi ESE 3.5 mph - N/A   Clear
8:15 AM 5.0 °F -2.1 °F -0.4 °F 78% 30.47 in 10.0 mi SE 3.5 mph - N/A   Clear
8:35 AM 5.0 °F -4.1 °F -0.4 °F 78% 30.46 in 10.0 mi SSE 4.6 mph - N/A   Clear
9:15 AM 6.8 °F -4.8 °F 1.4 °F 79% 30.45 in 10.0 mi SE 6.9 mph - N/A   Clear
9:35 AM 6.8 °F -5.9 °F 1.4 °F 79% 30.45 in 10.0 mi SE 8.1 mph - N/A   Clear
10:15 AM 10.4 °F -1.5 °F 5.0 °F 79% 30.44 in 10.0 mi ESE 8.1 mph - N/A   Clear
10:35 AM 10.4 °F -0.4 °F 5.0 °F 79% 30.44 in 10.0 mi SE 6.9 mph - N/A   Clear
10:55 AM 14.0 °F 5.1 °F 6.8 °F 73% 30.43 in 10.0 mi SE 5.8 mph - N/A   Clear
11:15 AM 15.8 °F 5.1 °F 8.6 °F 73% 30.41 in 10.0 mi ESE 8.1 mph - N/A   Clear
11:35 AM 17.6 °F 6.4 °F 10.4 °F 73% 30.40 in 10.0 mi ESE 9.2 mph - N/A   Clear
11:55 AM 19.4 °F 5.0 °F 10.4 °F 68% 30.37 in 10.0 mi ESE 16.1 mph - N/A   Clear
12:15 PM 21.2 °F 8.3 °F 8.6 °F 58% 30.35 in 10.0 mi SE 13.8 mph - N/A   Clear
12:35 PM 23.0 °F 8.7 °F 8.6 °F 54% 30.33 in 10.0 mi SE 18.4 mph - N/A   Clear
12:55 PM 24.8 °F 11.5 °F 6.8 °F 46% 30.32 in 10.0 mi SE 17.3 mph - N/A   Clear
1:15 PM 26.6 °F 15.2 °F 8.6 °F 47% 30.31 in 10.0 mi ESE 13.8 mph - N/A   Clear
1:35 PM 30.2 °F 18.9 °F 5.0 °F 34% 30.30 in 10.0 mi SSE 16.1 mph - N/A   Clear
2:15 PM 32.0 °F 20.1 °F 8.6 °F 38% 30.25 in 10.0 mi SE 19.6 mph 23.0 mph N/A   Clear
2:35 PM 32.0 °F 21.6 °F 8.6 °F 38% 30.23 in 10.0 mi SSE 15.0 mph 19.6 mph N/A   Clear
2:55 PM 32.0 °F 22.1 °F 8.6 °F 38% 30.22 in 10.0 mi SSE 13.8 mph 26.5 mph N/A   Clear
3:15 PM 32.0 °F 23.0 °F 8.6 °F 38% 30.21 in 10.0 mi SSE 11.5 mph - N/A   Clear
3:35 PM 32.0 °F 21.2 °F 10.4 °F 41% 30.19 in 10.0 mi SSE 16.1 mph - N/A   Clear
3:55 PM 32.0 °F 22.1 °F 10.4 °F 41% 30.18 in 10.0 mi SSE 13.8 mph 20.7 mph N/A   Clear
4:15 PM 32.0 °F 21.6 °F 10.4 °F 41% 30.17 in 10.0 mi SSE 15.0 mph 20.7 mph N/A   Clear
4:35 PM 32.0 °F 22.5 °F 10.4 °F 41% 30.16 in 10.0 mi SSE 12.7 mph 20.7 mph N/A   Clear
4:55 PM 32.0 °F 22.1 °F 10.4 °F 41% 30.15 in 10.0 mi SSE 13.8 mph - N/A   Clear
5:15 PM 30.2 °F 20.2 °F 12.2 °F 47% 30.13 in 10.0 mi SSE 12.7 mph - N/A   Clear
5:35 PM 30.2 °F 18.9 °F 12.2 °F 47% 30.11 in 10.0 mi SSE 16.1 mph 21.9 mph N/A   Clear
5:55 PM 32.0 °F 21.6 °F 12.2 °F 44% 30.10 in 10.0 mi SSE 15.0 mph 19.6 mph N/A   Clear
6:15 PM 30.2 °F 19.8 °F 14.0 °F 51% 30.08 in 10.0 mi South 13.8 mph 19.6 mph N/A   Clear
6:35 PM 30.2 °F 20.8 °F 14.0 °F 51% 30.07 in 10.0 mi South 11.5 mph 18.4 mph N/A   Clear
6:55 PM 30.2 °F 20.2 °F 14.0 °F 51% 30.06 in 10.0 mi South 12.7 mph - N/A   Clear
7:15 PM 30.2 °F 19.8 °F 14.0 °F 51% 30.04 in 10.0 mi South 13.8 mph - N/A   Clear
7:35 PM 30.2 °F 21.3 °F 14.0 °F 51% 30.04 in 10.0 mi South 10.4 mph - N/A   Clear
7:55 PM 32.0 °F 23.6 °F 14.0 °F 48% 30.02 in 10.0 mi South 10.4 mph 16.1 mph N/A   Clear
8:15 PM 32.0 °F 23.6 °F 14.0 °F 48% 30.00 in 10.0 mi South 10.4 mph - N/A   Clear
8:35 PM 32.0 °F 26.4 °F 14.0 °F 48% 29.99 in 10.0 mi SSE 5.8 mph - N/A   Clear
8:55 PM 30.2 °F 23.4 °F 14.0 °F 51% 29.97 in 10.0 mi South 6.9 mph - N/A   Clear
9:15 PM 32.0 °F 26.4 °F 14.0 °F 48% 29.95 in 10.0 mi South 5.8 mph - N/A   Clear
9:35 PM 32.0 °F 26.4 °F 14.0 °F 48% 29.93 in 10.0 mi South 5.8 mph - N/A   Clear
9:55 PM 30.2 °F 24.3 °F 15.8 °F 55% 29.93 in 10.0 mi South 5.8 mph - N/A   Clear
10:15 PM 28.4 °F 21.2 °F 15.8 °F 59% 29.92 in 10.0 mi SSE 6.9 mph - N/A   Clear
10:35 PM 28.4 °F 23.3 °F 15.8 °F 59% 29.91 in 10.0 mi SSE 4.6 mph - N/A   Clear
10:55 PM 28.4 °F 19.1 °F 15.8 °F 59% 29.89 in 10.0 mi South 10.4 mph - N/A   Clear
11:15 PM 30.2 °F 22.6 °F 15.8 °F 55% 29.88 in 10.0 mi SSE 8.1 mph - N/A   Clear
11:35 PM 28.4 °F 24.6 °F 15.8 °F 59% 29.87 in 10.0 mi SSE 3.5 mph - N/A   Clear
11:55 PM 26.6 °F 22.6 °F 15.8 °F 64% 29.86 in 10.0 mi SSE 3.5 mph - N/A   Clear